Find Starlink 11729

NORAD ID: 64073 Int'l Des: 2025-107 Owner: SPXS Country: US Constellation: starlink operational
LEOCIRCULAR

实时位置

正在加载3D地球...

关于 Starlink 11729

正在加载描述...

即将过境

Passes for default location (London). Set your location on the main map for personalized predictions.

高度历史

Loading altitude history...

两行轨道根数

1 64073U 25107K 26107.03530773 .00244885 00000-0 18470-2 0 9992
2 64073 43.0012 227.5580 0002828 282.9640 77.0911 15.70957585 53322
Epoch: Apr 17, 2026 • Age: 15 hours

当前状态

高度 366.6 km
速度 7.69 km/s
星下点 -42.73°S, 61.64°E
发射日期 May 21, 2025
运行时间 0.9 years
类型 internet

技术详情

分类 Payload
质量 960.00 kg
干质量 910.00 kg
总质量 960.00 kg
长度 0.30 m
直径 4.10 m
跨度 29.00 m
形状 Box + pan
制造商 SPXS
平台类型 Starlink V2MD
阶段状态 In Orbit
所有者/国家 SPXS/US

Most Searched